Вернуться в каталог

STARLINK-32766

АктивенСвязьVLEO
NORAD 62574·PAYLOAD·🇺🇸 United States

Запущен Jan 10, 2025 с Cape Canaveral Space Force Station

Loading…

Ближайшие Пролёты (ближайшие 24 часа)

TLE

СвежийSource: CelesTrak SupGP

Эпоха: Sep 14, 2026, 22:45 UTC

1 62574C 25006W   26257.94840278  .00010729  00000+0  38862-3 0  2576
2 62574  43.0032 303.7235 0001920 268.1848 230.1582 15.27571433    10

Отслеживайте STARLINK-32766 в реальном времени с AllMySat

Download on the App Store